Shelbyville, IN

4:25 AM EST on February 25, 2017 (GMT -0500)
Shelbyville Municipal

Weather History for KGEZ - June, 2013

Change the Weather History Date:

Thursday, June 27, 2013

  Actual Average Record
Temperature  
Mean Temperature 80 °F 74 °F  
Max Temperature 90 °F 84 °F 93 °F (2016)
Min Temperature 70 °F 63 °F 53 °F (2012)
Degree Days  
Heating Degree Days 0 0  
Month to date heating degree days 5 11  
Since 1 June heating degree days 5 11  
Since 1 July heating degree days 5076 5406  
Cooling Degree Days 15 9  
Month to date cooling degree days 244 183  
Year to date cooling degree days 412 264  
Since 1 June cooling degree days 244 183  
Growing Degree Days 29 (Base 50)    
Moisture  
Dew Point 68 °F    
Average Humidity 74    
Maximum Humidity 97    
Minimum Humidity 50    
Precipitation  
Precipitation 0.00 in 0.13 in 0.69 in (2008)
Month to date precipitation 2.28 4.04  
Year to date precipitation 14.59 21.82  
Sea Level Pressure  
Sea Level Pressure 29.75 in    
Wind  
Wind Speed 10 mph (West)    
Max Wind Speed 18 mph    
Max Gust Speed 24 mph    
Visibility 7 miles    
Events Fog , Thunderstorm    
T = Trace of Precipitation, MM = Missing Value Source: NWS Daily Summary

Daily Weather History Graph

Daily Weather History Graph

Search for Another Location

Airport or City:

Trip Planner

Search our weather history database for the weather conditions in past years. The results will help you decide how hot, cold, wet, or windy it might be!

Date:

Astronomy

Jun. 27, 2013 Rise Set
Actual Time 6:17 AM EDT 9:14 PM EDT
Civil Twilight 5:45 AM EDT 9:47 PM EDT
Nautical Twilight 5:04 AM EDT 10:28 PM EDT
Astronomical Twilight 4:16 AM EDT 11:15 PM EDT
Moon No Moon Rise 11:16 AM EDT (6/27)
Length of Visible Light 16h 01m
Length of Day
14h 57m
Waning Gibbous, 76% of the Moon is Illuminated
Jun 27
Waning Gibbous
Jun 30
Last Quarter
Jul 8
New
Jul 15
First Quarter
Jul 22
Full

Hourly Weather History & Observations

Time (EDT) Temp. Heat Index Dew Point Humidity Pressure Visibility Wind Dir Wind Speed Gust Speed Precip Events Conditions
12:08 AM 69.8 °F - 66.2 °F 88% 29.80 in 10.0 mi SSW 4.6 mph - N/A   Mostly Cloudy
12:20 AM 69.8 °F - 66.2 °F 88% 29.79 in 10.0 mi SSW 4.6 mph - N/A   Mostly Cloudy
12:53 AM 71.1 °F - 66.9 °F 87% 29.76 in 10.0 mi SSW 5.8 mph - N/A   Overcast
1:30 AM 69.8 °F - 66.2 °F 88% 29.77 in 10.0 mi South 6.9 mph - N/A   Overcast
1:53 AM 70.0 °F - 66.9 °F 90% 29.74 in 10.0 mi South 5.8 mph - N/A   Overcast
2:09 AM 69.8 °F - 66.2 °F 88% 29.76 in 10.0 mi SSW 5.8 mph - N/A   Overcast
2:21 AM 69.8 °F - 66.2 °F 88% 29.77 in 9.0 mi South 5.8 mph - N/A   Overcast
2:53 AM 70.0 °F - 66.9 °F 90% 29.75 in 3.0 mi SW 8.1 mph - N/A   Overcast
3:53 AM 70.0 °F - 66.9 °F 90% 29.74 in 3.0 mi WSW 6.9 mph - N/A   Overcast
4:01 AM 69.8 °F - 66.2 °F 88% 29.76 in 1.8 mi SW 5.8 mph - N/A   Overcast
4:13 AM 69.8 °F - 66.2 °F 88% 29.76 in 0.8 mi SW 5.8 mph - N/A   Mist
4:40 AM 69.8 °F - 66.2 °F 88% 29.76 in 1.2 mi WSW 9.2 mph - N/A   Overcast
4:53 AM 70.0 °F - 66.9 °F 90% 29.75 in 1.8 mi WSW 8.1 mph - N/A   Overcast
5:34 AM 69.8 °F - 66.2 °F 88% 29.76 in 0.8 mi WSW 6.9 mph - N/A   Mist
5:53 AM 70.0 °F - 68.0 °F 93% 29.75 in 0.5 mi WSW 6.9 mph - N/A Fog Fog
6:53 AM 71.1 °F - 68.0 °F 90% 29.75 in 0.2 mi West 6.9 mph - N/A Fog Fog
7:11 AM 71.6 °F - 69.8 °F 94% 29.77 in 0.5 mi WSW 5.8 mph - N/A Fog Fog
7:31 AM 71.6 °F - 69.8 °F 94% 29.77 in 1.2 mi WSW 5.8 mph - N/A   Overcast
7:53 AM 72.0 °F - 69.1 °F 91% 29.75 in 1.5 mi WSW 6.9 mph - N/A   Overcast
8:08 AM 71.6 °F - 69.8 °F 94% 29.77 in 2.0 mi West 6.9 mph - N/A   Overcast
8:53 AM 73.0 °F - 70.0 °F 90% 29.76 in 2.5 mi West 8.1 mph - N/A   Overcast
9:20 AM 73.4 °F - 71.6 °F 94% 29.78 in 3.0 mi WNW 9.2 mph - N/A   Overcast
9:37 AM 75.2 °F - 71.6 °F 89% 29.78 in 4.0 mi WNW 6.9 mph - N/A   Haze
9:41 AM 75.2 °F - 71.6 °F 89% 29.78 in 4.0 mi WNW 8.1 mph - N/A   Haze
9:53 AM 77.0 °F - 71.1 °F 82% 29.76 in 5.0 mi WNW 6.9 mph - N/A   Haze
10:08 AM 78.8 °F - 71.6 °F 78% 29.78 in 8.0 mi WNW 10.4 mph 17.3 mph N/A   Mostly Cloudy
10:22 AM 80.6 °F 83.9 °F 69.8 °F 70% 29.78 in 10.0 mi NNW 13.8 mph - N/A   Scattered Clouds
10:53 AM 81.0 °F 84.1 °F 69.1 °F 67% 29.75 in 10.0 mi NW 12.7 mph - N/A   Partly Cloudy
11:30 AM 82.4 °F 86.3 °F 69.8 °F 66% 29.78 in 10.0 mi NW 10.4 mph - N/A   Mostly Cloudy
11:53 AM 84.0 °F 88.4 °F 70.0 °F 63% 29.76 in 10.0 mi NW 9.2 mph 18.4 mph N/A   Scattered Clouds
12:53 PM 84.9 °F 88.2 °F 68.0 °F 57% 29.77 in 10.0 mi NW 9.2 mph - N/A   Partly Cloudy
1:53 PM 87.1 °F 91.3 °F 69.1 °F 55% 29.77 in 10.0 mi NW 11.5 mph - N/A   Partly Cloudy
2:53 PM 88.0 °F 92.9 °F 70.0 °F 55% 29.77 in 10.0 mi WNW 12.7 mph 17.3 mph N/A   Scattered Clouds
3:53 PM 88.0 °F 91.4 °F 68.0 °F 51% 29.76 in 10.0 mi West 16.1 mph - N/A   Scattered Clouds
4:53 PM 88.0 °F 90.7 °F 66.9 °F 49% 29.75 in 10.0 mi NW 16.1 mph - N/A   Clear
5:53 PM 89.1 °F 92.9 °F 68.0 °F 50% 29.73 in 10.0 mi NW 13.8 mph - N/A   Clear
6:53 PM 89.1 °F 92.9 °F 68.0 °F 50% 29.71 in 10.0 mi WNW 15.0 mph 21.9 mph N/A   Scattered Clouds
7:53 PM 88.0 °F 90.7 °F 66.9 °F 49% 29.71 in 10.0 mi WNW 12.7 mph 18.4 mph N/A   Clear
8:05 PM 87.8 °F 90.4 °F 66.2 °F 49% 29.73 in 10.0 mi WNW 11.5 mph - N/A Thunderstorm Clear
8:20 PM 87.8 °F 91.4 °F 68.0 °F 52% 29.73 in 10.0 mi West 8.1 mph - N/A   Clear
8:53 PM 84.0 °F 87.0 °F 68.0 °F 58% 29.72 in 10.0 mi WSW 6.9 mph - N/A   Clear
9:53 PM 79.0 °F - 70.0 °F 74% 29.69 in 10.0 mi SW 6.9 mph - N/A   Clear
10:53 PM 77.0 °F - 69.1 °F 76% 29.70 in 10.0 mi SW 4.6 mph - N/A   Clear
11:53 PM 77.0 °F - 69.1 °F 76% 29.69 in 10.0 mi WSW 8.1 mph - N/A   Clear